Location: Unspecified
(0.0000°N, 0.0000°E)
Time: 04:22:07
(UTC+01:00)

Cosmos 1954 Rocket - Visible Passes

Search period start: 01 November 2014 00:00
Search period end: 11 November 2014 00:00
Orbit: 753 x 783 km, 74.0° (Epoch: 31 October)

Date Brightness Start Highest point End Pass type
(mag) Time Alt. Az. Time Alt. Az. Time Alt. Az.
09 Nov 5.3 19:50:44 10° NNE 19:57:04 21° ESE 19:59:30 10° SE visible
09 Nov 6.5 21:36:42 17° W 21:36:53 17° WSW 21:40:17 10° SW visible
10 Nov 5.6 19:15:47 10° NE 19:18:08 13° ENE 19:20:29 10° ESE visible
10 Nov 5.4 20:55:09 10° NW 20:59:55 35° WSW 21:04:40 10° SSW visible
